Duchifat3 (84101 NORAD) Tracking and Keplerian Element Data
This shows tracking and keplerian element data for the satellite.
Feedback or suggestion? Click here.
Element | Value |
Catalog | 84101 |
Name | Duchifat3 |
Epoch Orbit | 0 |
Epoch Day | 345.41319444 |
Epoch Year | 2019 |
RAAN | 148 |
Inclination | 37 |
Eccentricity | 0.0001442 |
Argument of Perigee | 0 |
Mean Anonmoly | 140 |
Mean Motion | 15.02563222 |
Decay Rate | 0 |
L1 | 1 84101U 19345.41319444 .00000000 00000-0 50000-4 0 08 |
L2 | 2 84101 37.0000 148.0000 0001442 0.0000 140.0000 15.02563222 03 |
Live tracking and technical data element details for Duchifat3 (NORAD 84101). Duchifat3 can be tracked NOW for your location showing map with azimuth and elevation plus other details from your city location.
Track the satellite on the map from your city or location and see movement details for azimuth, elevation, latitude, longitude, range, height, and movement on the map or in text.
IsCatalogInMostPopularTable: catalog: 84101, numindb: 241
Update: records affected: 1
GetName: 84101 Duchifat3
Hit Count: updated at: Fri, 26 Feb 2021 09:23:19 GMT